Location: Newark
(61.5000°N, 23.7667°E)
Time: 13:45:27
(UTC+00:00)

Envisat - Visible Passes

Search period start: 23 September 2019 00:00
Search period end: 03 October 2019 00:00
Orbit: 764 x 766 km, 98.1° (Epoch: 23 September)

Date Brightness Start Highest point End Pass type
(mag) Time Alt. Az. Time Alt. Az. Time Alt. Az.
23 Sep 5.6 17:38:37 10° SW 17:42:44 24° W 17:46:51 10° NW visible
24 Sep 4.6 17:00:48 10° SSW 17:05:34 40° W 17:10:22 10° NNW visible
25 Sep 5.9 18:05:21 10° WSW 18:08:37 17° W 18:11:54 10° NW visible
26 Sep 5.3 17:26:59 10° SSW 17:31:20 28° W 17:35:42 10° NNW visible
27 Sep 4.3 16:49:21 10° S 16:54:14 46° W 16:59:10 10° NNW visible
27 Sep 6.3 18:32:54 10° W 18:34:36 12° WNW 18:36:20 10° NW visible
28 Sep 5.9 17:53:31 10° SW 17:57:12 20° W 18:00:53 10° NW visible
29 Sep 5.0 17:15:24 10° SSW 17:19:57 32° W 17:24:32 10° NNW visible
30 Sep 6.7 03:35:28 10° ENE 03:37:08 11° ENE 03:38:49 10° E visible
30 Sep 4.0 16:37:55 10° S 16:42:55 54° W 16:47:55 10° NNW visible
30 Sep 6.1 18:20:36 10° WSW 18:23:08 14° WNW 18:25:40 10° NW visible
01 Oct 5.6 17:41:47 10° SW 17:45:46 23° W 17:49:47 10° NW visible
02 Oct 4.7 17:03:52 10° SSW 17:08:35 37° W 17:13:20 10° NNW visible
